Weather History for Kalamazoo, MI

Change the Weather History Date:

Wednesday, March 26, 2014

  Actual Average Record
Temperature  
Mean Temperature 22 °F 41 °F  
Max Temperature 34 °F 50 °F 79 °F (2007)
Min Temperature 9 °F 31 °F 8 °F (2001)
Degree Days  
Heating Degree Days 43 24  
Month to date heating degree days 1035 768  
Since 1 July heating degree days 6203 5541  
Cooling Degree Days 0 0  
Month to date cooling degree days 0 0  
Year to date cooling degree days 0 0  
Moisture  
Dew Point 12 °F    
Average Humidity 65    
Maximum Humidity 88    
Minimum Humidity 41    
Precipitation  
Precipitation T in 0.07 in 1.04 in (1950)
Month to date precipitation 1.11 1.87  
Year to date precipitation 3.64 5.11  
Sea Level Pressure  
Sea Level Pressure 30.27 in    
Wind  
Wind Speed 6 mph (SSW)    
Max Wind Speed 16 mph    
Max Gust Speed 20 mph    
Visibility 10 miles    
Events      
T = Trace of Precipitation, MM = Missing Value Source: NWS Daily Summary

Daily Weather History Graph

Daily Weather History Graph

Search for Another Location

Airport:

Trip Planner

Search our weather history database for the weather conditions in past years. The results will help you decide how hot, cold, wet, or windy it might be!

Date:

Astronomy

Mar. 26, 2014 Rise Set
Actual Time 7:35 AM EDT 8:01 PM EDT
Civil Twilight 7:07 AM EDT 8:29 PM EDT
Nautical Twilight 6:33 AM EDT 9:02 PM EDT
Astronomical Twilight 6:00 AM EDT 9:36 PM EDT
Moon 4:47 AM EDT (3/26) 3:34 PM EDT (3/26)
Length of Visible Light 13h 22m
Length of Day
12h 26m
Waning Crescent, 22% of the Moon is Illuminated
Mar 26
Waning Crescent
Mar 30
New
Apr 7
First Quarter
Apr 15
Full
Apr 22
Last Quarter

Hourly Weather History & Observations

Time (EDT) Temp. Windchill Dew Point Humidity Pressure Visibility Wind Dir Wind Speed Gust Speed Precip Events Conditions
12:53 AM 12.9 °F - 9.0 °F 84% 30.24 in 10.0 mi Calm Calm - N/A   Clear
1:53 AM 14.0 °F 8.2 °F 10.0 °F 84% 30.24 in 10.0 mi WSW 3.5 mph - N/A   Overcast
2:53 AM 15.1 °F - 10.0 °F 80% 30.25 in 10.0 mi Calm Calm - 0.00 in   Overcast
3:53 AM 14.0 °F 8.2 °F 10.0 °F 84% 30.26 in 10.0 mi SW 3.5 mph - N/A   Mostly Cloudy
4:53 AM 12.9 °F - 9.0 °F 84% 30.27 in 10.0 mi Calm Calm - N/A   Clear
5:53 AM 12.0 °F - 9.0 °F 88% 30.28 in 10.0 mi Calm Calm - N/A   Clear
6:53 AM 10.9 °F - 6.1 °F 81% 30.30 in 10.0 mi Calm Calm - N/A   Clear
7:53 AM 10.0 °F - 7.0 °F 87% 30.32 in 10.0 mi Calm Calm - N/A   Clear
8:53 AM 18.0 °F 11.1 °F 14.0 °F 84% 30.35 in 10.0 mi South 4.6 mph - N/A   Clear
9:53 AM 19.9 °F 12.1 °F 10.9 °F 68% 30.35 in 10.0 mi South 5.8 mph - N/A   Clear
10:53 AM 21.9 °F - 10.0 °F 60% 30.37 in 10.0 mi Calm Calm - N/A   Partly Cloudy
11:53 AM 27.0 °F 17.3 °F 10.0 °F 49% 30.36 in 10.0 mi SSW 10.4 mph - N/A   Scattered Clouds
12:53 PM 28.0 °F 17.5 °F 9.0 °F 45% 30.35 in 10.0 mi WSW 12.7 mph - N/A   Partly Cloudy
1:53 PM 28.0 °F 21.7 °F 10.0 °F 47% 30.32 in 10.0 mi SW 5.8 mph - N/A   Partly Cloudy
2:53 PM 30.9 °F 22.8 °F 12.0 °F 46% 30.30 in 10.0 mi SSW 9.2 mph - N/A   Partly Cloudy
3:53 PM 30.9 °F 22.2 °F 12.0 °F 46% 30.27 in 10.0 mi South 10.4 mph - N/A   Clear
4:53 PM 33.1 °F 23.9 °F 12.9 °F 43% 30.25 in 10.0 mi SW 12.7 mph - N/A   Clear
5:53 PM 33.1 °F 25.5 °F 14.0 °F 46% 30.23 in 10.0 mi South 9.2 mph - N/A   Partly Cloudy
6:53 PM 33.1 °F 26.1 °F 14.0 °F 46% 30.22 in 10.0 mi South 8.1 mph - N/A   Clear
7:53 PM 32.0 °F 25.6 °F 15.1 °F 50% 30.20 in 10.0 mi South 6.9 mph - N/A   Clear
8:53 PM 30.9 °F 25.2 °F 15.1 °F 52% 30.19 in 10.0 mi SSE 5.8 mph - N/A   Scattered Clouds
9:53 PM 32.0 °F 25.6 °F 16.0 °F 52% 30.18 in 10.0 mi SSE 6.9 mph - N/A   Overcast
10:53 PM 32.0 °F 24.2 °F 17.1 °F 54% 30.16 in 10.0 mi SSE 9.2 mph - N/A   Overcast
11:53 PM 33.1 °F 26.1 °F 17.1 °F 52% 30.11 in 10.0 mi SSE 8.1 mph - N/A   Overcast